EN

Hourly Weather Allanche

Today, 26 January, Tuesday

Time Temperature Precipitation Wind Pressure Humidity
00:00 -8°C° 0 mm 1 mps 666 mmHg 93%
01:00 -8°C° 0 mm 1 mps 666 mmHg 92%
02:00 -8°C° 0 mm 1 mps 667 mmHg 92%
03:00 -8°C° 0 mm 1 mps 667 mmHg 91%
04:00 -8°C° 0 mm 1 mps 667 mmHg 91%
05:00 -8°C° 0 mm 1 mps 667 mmHg 91%
06:00 -8°C° 0 mm 1 mps 668 mmHg 91%
07:00 -7°C° 0 mm 0 mps 668 mmHg 87%
08:00 -6°C° 0 mm 0 mps 668 mmHg 83%
09:00 -5°C° 0 mm 0 mps 669 mmHg 78%
10:00 -4°C° 0 mm 0 mps 669 mmHg 72%
11:00 -2°C° 0 mm 0 mps 669 mmHg 66%
12:00 0°C° 0 mm 1 mps 669 mmHg 60%
13:00 0°C° 0 mm 1 mps 669 mmHg 61%
14:00 -1°C° 0 mm 0 mps 669 mmHg 62%
15:00 -1°C° 0 mm 0 mps 668 mmHg 63%
16:00 -2°C° 0 mm 0 mps 668 mmHg 65%
17:00 -1°C° 0 mm 1 mps 668 mmHg 68%
18:00 -2°C° 0 mm 1 mps 668 mmHg 70%
19:00 -2°C° 0 mm 1 mps 668 mmHg 69%
20:00 -3°C° 0 mm 1 mps 668 mmHg 68%
21:00 -3°C° 0 mm 1 mps 668 mmHg 66%
22:00 -3°C° 0 mm 1 mps 668 mmHg 64%
23:00 -3°C° 0 mm 1 mps 668 mmHg 61%

Tomorrow, 27 January, Wednesday

Time Temperature Precipitation Wind Pressure Humidity
00:00 -3°C° 0 mm 1 mps 668 mmHg 59%
01:00 -2°C° 0 mm 1 mps 667 mmHg 62%
02:00 -2°C° 0 mm 1 mps 667 mmHg 65%
03:00 -1°C° 0 mm 1 mps 667 mmHg 68%
04:00 -1°C° 0.2 mm 1 mps 667 mmHg 74%
05:00 0°C° 0.2 mm 1 mps 667 mmHg 81%
06:00 0°C° 0.2 mm 1 mps 667 mmHg 88%
07:00 +1°C° 0.2 mm 1 mps 668 mmHg 90%
08:00 +2°C° 0.2 mm 1 mps 668 mmHg 93%
09:00 +2°C° 0.2 mm 1 mps 668 mmHg 96%
10:00 +3°C° 0 mm 1 mps 668 mmHg 95%
11:00 +3°C° 0 mm 2 mps 668 mmHg 95%
12:00 +3°C° 0 mm 2 mps 669 mmHg 94%
13:00 +3°C° 0 mm 2 mps 668 mmHg 95%
14:00 +3°C° 0 mm 2 mps 668 mmHg 95%
15:00 +2°C° 0 mm 3 mps 668 mmHg 95%
16:00 +3°C° 0 mm 2 mps 668 mmHg 96%
17:00 +3°C° 0 mm 2 mps 669 mmHg 96%
18:00 +2°C° 0 mm 2 mps 669 mmHg 97%
19:00 +2°C° 0.2 mm 2 mps 669 mmHg 97%
20:00 +2°C° 0.2 mm 2 mps 669 mmHg 98%
21:00 +4°C° 0.2 mm 1 mps 669 mmHg 98%
22:00 +3°C° 0.7 mm 2 mps 669 mmHg 98%
23:00 +3°C° 0.7 mm 2 mps 669 mmHg 98%

Day after tomorrow, 28 January, Thursday

Time Temperature Precipitation Wind Pressure Humidity
00:00 +3°C° 0.7 mm 2 mps 669 mmHg 98%
01:00 +3°C° 0.1 mm 2 mps 668 mmHg 98%
02:00 +4°C° 0.1 mm 2 mps 668 mmHg 98%
03:00 +3°C° 0.1 mm 3 mps 668 mmHg 98%
04:00 +3°C° 0 mm 3 mps 668 mmHg 97%
05:00 +3°C° 0 mm 4 mps 668 mmHg 97%
06:00 +4°C° 0 mm 4 mps 668 mmHg 96%
07:00 +4°C° 0.1 mm 4 mps 668 mmHg 96%
08:00 +3°C° 0.1 mm 5 mps 668 mmHg 96%
09:00 +3°C° 0.1 mm 5 mps 668 mmHg 96%
10:00 +5°C° 0.2 mm 5 mps 668 mmHg 95%
11:00 +5°C° 0.2 mm 5 mps 668 mmHg 95%
12:00 +5°C° 0.2 mm 5 mps 668 mmHg 95%
13:00 +5°C° 0.7 mm 5 mps 667 mmHg 95%
14:00 +5°C° 0.7 mm 5 mps 667 mmHg 95%
15:00 +5°C° 0.7 mm 5 mps 667 mmHg 95%
16:00 +5°C° 0.5 mm 5 mps 667 mmHg 96%
17:00 +5°C° 0.5 mm 4 mps 667 mmHg 96%
18:00 +5°C° 0.5 mm 4 mps 667 mmHg 96%
19:00 +5°C° 0.6 mm 4 mps 667 mmHg 96%
20:00 +5°C° 0.6 mm 4 mps 667 mmHg 96%
21:00 +5°C° 0.6 mm 4 mps 667 mmHg 96%
22:00 +5°C° 0.3 mm 4 mps 667 mmHg 96%
23:00 +5°C° 0.3 mm 5 mps 667 mmHg 96%

29 January, Friday

Time Temperature Precipitation Wind Pressure Humidity
00:00 +5°C° 0.3 mm 5 mps 667 mmHg 96%
01:00 +5°C° 0.2 mm 5 mps 667 mmHg 96%
02:00 +5°C° 0.2 mm 5 mps 666 mmHg 95%
03:00 +3°C° 0.2 mm 5 mps 666 mmHg 95%
04:00 +4°C° 0.9 mm 4 mps 666 mmHg 95%
05:00 +5°C° 0.9 mm 4 mps 666 mmHg 96%
06:00 +5°C° 0.9 mm 4 mps 665 mmHg 96%
07:00 +5°C° 1 mm 3 mps 665 mmHg 96%
08:00 +4°C° 1 mm 3 mps 665 mmHg 97%
09:00 +5°C° 1 mm 2 mps 665 mmHg 97%
10:00 +5°C° 2 mm 2 mps 665 mmHg 97%
11:00 +5°C° 2 mm 2 mps 665 mmHg 97%
12:00 +5°C° 2 mm 2 mps 665 mmHg 97%
13:00 +5°C° 0.9 mm 2 mps 665 mmHg 95%
14:00 +4°C° 0.9 mm 2 mps 665 mmHg 92%
15:00 +4°C° 0.9 mm 2 mps 665 mmHg 90%
16:00 +4°C° 0 mm 2 mps 665 mmHg 92%
17:00 +3°C° 0 mm 2 mps 665 mmHg 94%
18:00 +3°C° 0 mm 2 mps 666 mmHg 96%
19:00 +4°C° 0 mm 1 mps 665 mmHg 96%
20:00 +4°C° 0 mm 1 mps 665 mmHg 96%
21:00 +3°C° 0 mm 1 mps 665 mmHg 96%
22:00 +3°C° 0 mm 1 mps 665 mmHg 96%
23:00 +3°C° 0 mm 1 mps 664 mmHg 96%

30 January, Saturday

Time Temperature Precipitation Wind Pressure Humidity
00:00 +2°C° 0 mm 1 mps 664 mmHg 95%
01:00 +2°C° 0 mm 1 mps 663 mmHg 95%
02:00 +2°C° 0 mm 1 mps 662 mmHg 95%
03:00 +1°C° 0 mm 1 mps 661 mmHg 95%
04:00 +2°C° 0 mm 1 mps 660 mmHg 94%
05:00 +2°C° 0 mm 1 mps 659 mmHg 93%
06:00 +2°C° 0 mm 1 mps 658 mmHg 91%
07:00 +3°C° 0.5 mm 1 mps 658 mmHg 91%
08:00 +3°C° 0.5 mm 1 mps 658 mmHg 92%
09:00 +4°C° 0.5 mm 1 mps 659 mmHg 92%
10:00 +4°C° 0.3 mm 0 mps 659 mmHg 91%
11:00 +4°C° 0.3 mm 0 mps 659 mmHg 90%
12:00 +5°C° 0.3 mm 0 mps 659 mmHg 90%
13:00 +5°C° 0 mm 0 mps 659 mmHg 90%
14:00 +5°C° 0 mm 0 mps 659 mmHg 91%
15:00 +5°C° 0 mm 0 mps 659 mmHg 91%
16:00 +6°C° 0.1 mm 1 mps 659 mmHg 93%
17:00 +5°C° 0.1 mm 1 mps 660 mmHg 95%
18:00 +5°C° 0.1 mm 1 mps 660 mmHg 97%
19:00 +5°C° 0 mm 1 mps 660 mmHg 97%
20:00 +4°C° 0 mm 2 mps 661 mmHg 97%
21:00 +4°C° 0 mm 2 mps 661 mmHg 97%
22:00 +4°C° 0.3 mm 2 mps 661 mmHg 96%
23:00 +3°C° 0.3 mm 3 mps 662 mmHg 96%

31 January, Sunday

Time Temperature Precipitation Wind Pressure Humidity
00:00 +3°C° 0.3 mm 3 mps 662 mmHg 96%
01:00 +4°C° 0.1 mm 3 mps 662 mmHg 96%
02:00 +4°C° 0.1 mm 4 mps 662 mmHg 96%
03:00 +4°C° 0.1 mm 4 mps 662 mmHg 96%
04:00 +3°C° 0.1 mm 4 mps 662 mmHg 95%
05:00 +3°C° 0.1 mm 4 mps 662 mmHg 95%
06:00 +1°C° 0.1 mm 4 mps 662 mmHg 94%
07:00 +1°C° 0.3 mm 4 mps 661 mmHg 94%
08:00 +1°C° 0.3 mm 4 mps 661 mmHg 94%
09:00 +1°C° 0.3 mm 4 mps 661 mmHg 94%
10:00 +1°C° 0.9 mm 4 mps 661 mmHg 93%
11:00 +2°C° 0.9 mm 5 mps 660 mmHg 92%
12:00 +3°C° 0.9 mm 6 mps 660 mmHg 92%
13:00 +3°C° 0.7 mm 6 mps 659 mmHg 92%
14:00 +3°C° 0.7 mm 7 mps 659 mmHg 92%
15:00 +2°C° 0.7 mm 8 mps 658 mmHg 92%
16:00 +2°C° 0.6 mm 8 mps 658 mmHg 92%
17:00 +1°C° 0.6 mm 8 mps 658 mmHg 92%
18:00 +1°C° 0.6 mm 8 mps 658 mmHg 92%
19:00 +1°C° 1.1 mm 8 mps 658 mmHg 93%
20:00 +1°C° 1.1 mm 8 mps 658 mmHg 93%
21:00 0°C° 1.1 mm 8 mps 658 mmHg 94%
22:00 +1°C° 1.6 mm 8 mps 659 mmHg 94%
23:00 +1°C° 1.6 mm 8 mps 659 mmHg 93%
Show more